CALIPSO (29108 NORAD) Tracking and Keplerian Element Data

This shows tracking and keplerian element data for the satellite.

Feedback or suggestion? Click here.




ElementValue
Catalog29108
NameCALIPSO
Epoch Orbit67185
Epoch Day348.8971637
Epoch Year2018
RAAN290.0878
Inclination98.1669
Eccentricity0.0001275
Argument of Perigee81.8962
Mean Anonmoly278.2384
Mean Motion14.62281154
Decay Rate1.16E-06
L11 29108U 06016B 18348.89716370 .00000116 00000-0 32261-4 0 9994
L22 29108 98.1669 290.0878 0001275 81.8962 278.2384 14.62281154671859

Live tracking and technical data element details for CALIPSO (NORAD 29108). CALIPSO can be tracked NOW for your location showing map with azimuth and elevation plus other details from your city location.

Track the satellite on the map from your city or location and see movement details for azimuth, elevation, latitude, longitude, range, height, and movement on the map or in text.







IsCatalogInMostPopularTable: catalog: 29108, numindb: 45
Update: records affected: 1



GetName: 29108 CALIPSO

Hit Count: updated at: Sat, 15 Dec 2018 13:54:53 GMT